{"data":{"norad_id":59471,"intl_designator":"2024-068S","name":"STARLINK-31575","alt_names":[],"object_type":"PAYLOAD","status":"ACTIVE","operator":null,"country":"US","launch_date":"2024-04-10","launch_site_code":"AFETR","launch_vehicle":null,"mission":null,"orbit_class":"UNKNOWN","rcs_meters":null,"size_class":null,"mass_kg":null,"dimensions":null,"purposes":["comms"],"wikipedia_slug":null,"has_3d_model":false,"image_url":null,"decayed_at":null,"tle_current":{"epoch":"2026-09-21T14:08:51.378720Z","epoch_age_seconds":71275,"freshness":"FRESH","line1":"1 59471U 24068S   26264.58948355  .00000380  00000+0  23327-4 0  9994","line2":"2 59471  43.0045   4.6699 0001248 284.0439  76.0274 15.27581656138524","mean_motion":15.27581656,"eccentricity":0.0001248,"inclination_deg":43.0045,"raan_deg":4.6699,"arg_perigee_deg":284.0439,"mean_anomaly_deg":76.0274,"bstar":2.3327e-5,"rev_number":13852,"period_min":94.266646522233,"perigee_km":482.18786197844,"apogee_km":483.90041279034,"semimajor_km":6861.1811373844,"source":"CELESTRAK","updated_at":"2026-09-22T09:00:48.950425Z"}}}